SCP
0 0 0 0 0 0 0 0 0 0 0 0 0 0 0 0 0 0 0 0 0 0 0 0 0 0 0 0 0 0 0 0 0 0 0 0 0 0 0 0 0 0 0
0 0 0 0 0 0 0 0 0 0 0 0 0 0 0 0 0 0 0 0 0 0 0 0 0 0 0 0 0 0 0 0 0 0 0 0 0 0 0 0 0 0 0
0 0 0 0 0 0 0 0 0 0 0 0 0 0 0 0 0 0 0 0 0 0 0 0 0 0 0 0 0 0 0 0 0 0 0 0 0 0 0 0 0 0 0
0 0 0 0 0 0 0 0 0 0 0 0 0 0 0 0 0 0 0 0 0 0 0 0 0 0 0 0 0 0 0 0 0 0 0 0 0 0 0 0 0 0 0
0 0 0 0 0 0 0 0 0 0 0 0 0 0 0 0 0 0 0 0 0 0 0 0 0 0 0 0 0 0 0 0 0 0 0 0 0 0 0 0 0 0 0
0 0 0 0 0 0 0 0 0 0 0 0 0 -0 0 0 0 0 0 0 0 0 0 0 0 0 0 0 0 0 0 0 0 0 0 0 0 0 0 0 0 0 0
0 0 0 0 0 0 0 0 0 0 0 0 0 0 0 0 0 0 0 0 0 0 0 0 0 0 0 0 0 0 0 0 0 0 0 0 0 0 0 0 0 0 0
0 0 0 0 0 0 0 0 0 0 0 0 0 0 0 0 0 0 0 0 0 0 0 0 0 0 0 0 0 0 0 0 0 0 0 0 0 0 0 0 0 0 0
0 0 0 0 0 0 0 0 0 0 0 0 0 0 0 0 0 0 0 0 0 0 0 0 0 0 0 0 0 0 0 0 0 0 0 0 0 0 0 0 0 0 0
0 0 0 0 0 0 0 0 0 0 0 0 0 0 0 0 0 0 0 0 0 0 0 0 0 0 0 0 0 0 0 0 0 0 0 0 0 0 0 0 0 0 0
0 0 0 0 0 0 0 0 0 0 0 0 0 0 0 0 0 0 0 0 0 0 0 0 0 0 0 0 0 0 0 0 0 0 0 0 0 0 0 0 0 0 0
0 0 0 0 0 0 0 0 0 0 0 0 0 0 0 0 0 0 0 0 0 0 0 0 0 0 0 0 0 0 0 0 0 0 0 0 0 0 0 0 0 0 0
0 0 0 0 0 0 0 0 0 0 0 0 0 0 0 0 0 0 0 0 0 0 -0 -0 0 0 0 0 0 0 0 0 0 0 0 0 0 0 0 0 0 0 0
0 0 0 0 0 0 0 0 0 0 0 0 0 0 0 0 0 0 0 0 -0 0 0 -0 -0 -0 0 0 0 0 0 0 0 0 0 0 0 0 0 0 0 0 0
0 0 0 0 0 0 0 0 0 0 0 0 0 0 0 0 0 0 0 0 0 -0 -0 0 0 -0 0 0 -0 0 0 0 0 0 0 0 0 0 0 0 0 0 0
0 0 0 0 0 0 0 0 0 0 0 0 0 0 0 0 0 0 0 0 0 0 0 0 0 0 0 -0 -0 -0 0 0 0 0 0 0 0 0 0 0 0 0 0
0 0 0 0 0 0 0 0 0 0 0 0 0 0 0 -0 -0 0 0 0 0 0 0 0 0 0 0 0 -0 -0 0 0 0 0 0 0 0 0 0 0 0 0 0
0 0 0 0 0 0 0 0 0 0 0 0 0 0 0 0 -0 -0 0 0 0 0 0 0 0 0 0 0 0 0 -0 0 0 0 0 0 0 0 0 0 0 0 0
0 0 0 0 0 0 0 0 0 0 0 0 0 0 0 0 0 0 0 0 0 0 0 0 0 0 0 0 0 0 0 -0 0 0 0 0 0 0 0 0 0 0 0
0 0 0 0 0 0 0 0 0 0 0 0 0 0 0 0 0 0 0 0 0 0 0 0 0 0 -0 -0 -0 -0 -0 0 0 0 0 0 0 0 0 0 0 0 0
0 0 0 0 0 0 0 0 0 0 0 0 0 0 0 0 0 0 0 0 0 0 0 0 0 0 0 0 0 0 0 0 0 0 -0 -0 -0 0 0 0 0 0 0
0 0 0 0 0 0 0 0 0 0 0 0 0 0 0 0 0 0 0 0 0 0 0 0 0 0 0 0 0 0 0 0 -0 0 0 0 0 0 0 0 0 0 0
0 0 0 0 0 0 0 0 0 0 0 0 0 0 0 0 0 0 0 0 0 0 0 0 0 0 0 0 0 0 0 0 0 0 0 -0 0 0 0 0 0 0 0
0 0 0 0 0 0 0 0 0 0 0 0 0 0 0 0 0 0 0 0 0 0 0 0 0 0 0 0 0 0 0 0 0 0 0 0 0 0 0 0 0 0 0
0 0 0 0 0 0 0 0 0 0 0 0 0 0 0 0 0 0 0 0 0 0 0 0 0 0 0 0 0 0 0 0 0 0 0 0 0 0 0 0 0 0 0
0 0 0 0 0 0 0 0 0 0 0 0 0 0 0 0 0 0 0 0 0 0 0 0 0 0 0 0 0 0 0 0 0 0 0 0 0 0 -0 -0 0 0 0
Wind_Speed_500mb
23 23 25 22 24 25 29 24 27 29 35 29 26 24 25 26 26 26 26 25 23 22 21 20 19 18 19 19 20 18 15 15 16 22 19 20 25 28 38 41 38 38 36
25 27 25 17 20 24 25 23 26 25 29 29 31 27 26 28 29 30 30 29 30 29 27 25 23 22 17 21 18 21 25 18 14 18 25 24 26 24 27 35 39 40 44
20 29 14 14 21 26 32 29 20 25 31 33 37 29 28 29 31 32 34 34 34 34 33 32 30 28 27 22 17 22 28 31 31 19 21 25 26 21 24 28 33 39 40
13 22 23 28 29 33 32 32 25 26 27 29 34 38 36 37 38 36 37 38 38 38 37 36 36 34 32 29 24 23 24 40 36 41 27 24 25 21 24 24 28 31 34
13 17 16 10 11 16 16 18 19 24 29 34 37 39 38 38 41 50 50 46 45 46 45 42 40 38 37 36 35 32 28 35 39 43 48 26 26 28 29 24 26 28 28
7 10 10 13 15 16 15 19 17 21 29 28 33 37 39 40 46 46 54 54 51 49 48 48 48 46 40 38 38 38 36 26 38 45 43 34 39 33 31 30 31 30 30
5 7 10 13 15 15 20 20 20 26 28 35 42 45 47 47 36 36 43 39 32 30 32 37 43 49 50 47 43 41 42 46 43 36 49 42 41 48 31 31 31 32 33
5 4 6 10 11 13 15 17 20 21 25 30 29 33 17 21 27 22 30 34 40 42 42 39 37 37 41 48 50 49 49 48 57 50 39 44 48 42 42 40 34 33 31
14 13 13 14 15 16 18 22 22 21 22 25 27 17 14 12 39 15 26 33 34 40 48 50 48 45 41 40 41 46 51 54 55 60 61 53 43 42 46 45 46 40 36
15 15 16 17 19 21 21 24 26 26 28 29 24 23 19 24 16 30 27 40 37 44 43 44 51 54 55 54 52 47 42 46 52 58 62 69 67 60 51 44 51 49 44
13 14 16 18 20 22 24 25 26 28 30 30 32 33 30 24 16 24 45 45 56 49 50 39 49 46 45 53 59 57 55 55 54 51 56 63 68 71 73 70 56 54 57
12 14 17 19 21 22 24 26 28 29 30 31 32 33 33 32 28 27 39 47 60 53 68 69 52 48 39 38 39 46 52 56 56 59 60 58 58 66 72 73 72 63 62
10 13 16 18 21 23 25 27 29 31 33 34 35 36 37 38 41 43 41 47 53 73 61 58 64 43 52 34 31 31 38 45 51 56 60 64 65 62 64 70 73 74 68
14 17 20 22 24 26 27 29 31 33 34 37 40 42 44 45 47 49 48 47 60 53 63 46 50 45 55 57 52 57 55 51 48 53 58 61 66 68 69 67 70 74 74
14 18 21 25 27 29 31 32 35 38 41 43 47 50 52 53 54 55 56 53 44 58 64 53 52 39 49 78 86 74 69 64 61 55 53 57 66 72 70 72 72 72 76
18 21 25 29 32 34 36 38 41 45 48 52 56 58 60 60 59 57 56 55 51 48 67 58 76 79 89 94 93 89 83 77 73 67 64 59 56 62 73 75 74 76 75
23 27 31 35 38 40 44 46 49 53 57 60 61 63 65 65 64 62 60 58 55 48 61 79 70 83 90 90 92 92 91 90 86 79 73 69 67 62 61 70 79 78 78
27 32 35 37 39 42 46 51 53 56 60 63 65 66 68 68 68 65 60 58 54 52 56 75 81 67 71 79 85 88 89 92 92 90 83 77 76 73 70 66 68 79 81
31 35 37 40 43 47 51 55 57 59 61 62 64 67 70 73 74 71 68 67 63 59 55 66 89 73 67 64 75 75 75 80 86 88 88 83 79 80 79 76 72 69 78
35 38 41 43 46 50 54 56 59 61 63 64 65 68 70 72 72 74 75 69 61 57 56 61 73 81 64 56 57 67 75 64 58 56 77 84 83 79 82 83 81 76 70
38 40 43 46 49 52 56 59 60 63 64 65 66 68 70 73 75 72 66 62 58 59 59 62 71 72 71 60 53 48 60 65 74 69 74 80 75 73 75 78 81 82 76
42 42 46 50 54 57 59 61 63 64 65 67 70 71 70 70 68 67 63 53 50 58 64 67 72 70 68 59 61 65 67 65 77 57 58 64 56 63 63 72 78 70 70
47 45 49 54 59 61 61 62 64 64 66 68 69 71 70 65 65 61 57 53 52 51 53 61 71 67 69 58 56 59 60 66 76 66 61 82 62 74 86 94 68 75 84
51 51 54 58 63 60 62 62 63 63 65 66 66 67 66 64 60 55 58 60 63 61 60 61 64 71 67 66 65 67 73 78 80 78 61 76 55 71 67 72 66 67 79
53 53 57 62 60 61 60 61 62 62 63 65 65 62 59 58 55 55 66 73 73 73 69 71 71 67 66 64 62 65 72 71 75 74 64 69 61 72 71 77 79 66 70
55 57 61 63 62 61 58 59 60 59 60 59 59 58 53 55 57 59 65 73 87 83 75 81 86 83 72 65 57 59 63 73 76 81 59 56 62 60 71 61 35 41 59
Wind_Direction_500mb
270 274 282 290 297 297 301 306 312 325 324 313 303 296 289 285 284 284 285 284 282 280 280 282 284 290 298 301 302 290 289 302 295 294 294 289 267 256 250 251 248 244 239
245 255 262 284 286 275 277 284 295 308 322 319 309 299 296 291 287 283 280 278 278 276 275 275 275 273 270 284 298 293 297 294 285 292 297 290 277 263 253 249 248 244 244
252 260 242 259 272 271 262 277 272 299 309 313 311 293 294 297 294 287 282 280 277 276 276 274 272 269 267 266 256 277 293 296 298 304 290 288 282 280 266 255 250 247 248
297 291 289 270 266 274 269 262 274 286 294 298 305 308 308 308 302 300 293 287 280 273 270 271 273 273 270 263 250 230 262 279 286 297 307 287 281 274 272 271 264 262 260
303 296 293 1 351 340 319 294 275 286 296 297 296 297 295 299 307 308 302 300 293 286 279 271 266 268 271 271 266 254 241 254 275 285 298 286 289 282 272 265 264 266 267
340 348 329 334 332 330 320 314 324 312 310 309 308 302 299 298 299 298 302 303 298 290 283 279 274 268 264 262 263 261 248 237 256 278 289 291 299 294 277 273 265 262 263
347 339 331 319 315 312 316 314 313 311 308 305 305 298 299 298 292 293 297 297 293 302 300 291 281 273 268 265 258 253 249 241 241 258 278 279 288 297 287 276 270 267 265
52 16 344 337 332 327 313 311 312 315 314 320 325 327 323 312 297 299 290 288 291 294 290 293 300 298 287 274 265 260 255 246 241 246 254 271 285 280 290 291 283 270 267
37 26 16 10 0 353 349 350 346 340 342 344 346 358 336 321 324 300 304 294 294 292 292 287 284 283 285 287 282 271 263 260 253 244 241 248 256 270 278 280 286 284 271
32 27 23 19 15 14 9 9 7 5 2 354 356 358 340 317 320 315 310 316 309 313 310 307 297 288 279 274 274 275 276 270 263 256 250 247 246 250 256 267 275 279 276
31 22 19 18 11 9 8 5 359 358 356 354 353 350 345 342 326 307 307 311 310 315 313 314 315 312 304 287 270 266 266 266 265 265 262 256 252 249 249 252 258 272 274
20 10 7 3 5 0 356 356 355 353 352 348 344 341 338 336 321 315 305 307 310 316 309 312 315 316 313 309 294 278 266 261 262 261 261 261 260 257 253 251 250 249 262
19 9 5 356 354 351 349 346 345 344 343 341 336 331 326 319 313 309 305 302 302 307 313 307 311 305 311 308 302 302 292 282 272 264 258 257 258 258 258 257 253 250 245
3 359 354 351 349 346 343 341 339 337 335 332 328 324 320 315 309 305 300 300 303 300 300 305 299 300 296 296 292 302 297 293 286 279 273 264 258 257 256 256 257 254 250
349 346 341 339 337 335 333 332 331 330 329 327 325 323 319 315 311 306 301 297 292 295 294 295 291 295 284 291 293 293 291 290 289 288 284 278 271 262 256 255 255 254 252
340 336 332 330 329 329 328 327 328 328 328 327 326 324 322 318 314 309 303 297 290 284 283 287 285 284 289 293 291 290 287 284 282 283 283 282 279 275 266 257 255 254 252
331 327 325 323 323 325 325 326 328 328 328 327 327 325 323 319 316 312 306 300 293 286 283 287 285 288 288 290 292 292 288 286 283 279 278 279 278 277 274 269 258 253 254
322 323 319 318 320 321 322 323 324 325 325 325 325 324 320 317 314 311 307 301 295 290 287 289 292 291 288 287 288 290 291 286 284 281 278 274 273 274 273 270 268 259 252
317 317 315 316 319 320 321 321 321 321 321 320 320 319 316 313 311 309 306 301 296 292 287 285 291 292 290 292 293 288 289 289 286 283 280 274 270 268 268 269 268 265 259
309 312 313 313 316 317 317 317 318 318 318 318 317 315 313 311 309 308 305 301 299 296 294 289 289 293 294 296 290 291 294 292 287 288 284 283 276 268 265 264 264 264 263
298 306 309 310 312 313 314 316 316 316 315 316 315 313 312 311 310 307 305 301 297 295 294 293 291 293 293 294 291 292 283 285 282 286 290 290 292 284 273 264 262 261 263
287 297 305 309 311 312 312 313 314 315 316 316 315 313 312 311 311 308 303 296 293 295 294 290 290 292 294 295 293 286 285 289 288 283 290 275 265 273 276 273 268 260 255
282 291 301 307 310 309 307 310 312 314 315 314 312 312 312 313 313 308 303 299 296 295 290 291 288 287 290 292 291 289 286 285 287 294 292 287 285 282 278 269 267 270 263
282 292 298 302 306 304 305 308 311 313 313 311 311 312 310 313 312 306 306 306 305 299 295 291 288 290 289 291 288 288 290 290 290 291 289 283 290 287 289 280 277 274 269
283 290 298 304 303 303 305 308 310 312 311 311 311 313 311 310 309 309 307 304 302 302 306 306 304 289 284 284 282 285 283 284 285 286 286 284 289 289 291 284 277 272 268
285 293 299 300 300 300 305 306 309 309 308 308 309 312 313 308 308 307 304 303 302 302 305 301 300 299 296 294 284 273 272 275 280 285 286 285 291 296 302 299 297 297 278
Wind_Speed_850mb
23 23 25 22 24 25 29 24 27 29 35 29 26 24 25 26 26 26 26 25 23 22 21 20 19 18 19 19 20 18 15 15 16 22 19 20 25 28 38 41 38 38 36
25 27 25 17 20 24 25 23 26 25 29 29 31 27 26 28 29 30 30 29 30 29 27 25 23 22 17 21 18 21 25 18 14 18 25 24 26 24 27 35 39 40 44
20 29 14 14 21 26 32 29 20 25 31 33 37 29 28 29 31 32 34 34 34 34 33 32 30 28 27 22 17 22 28 31 31 19 21 25 26 21 24 28 33 39 40
13 22 23 28 29 33 32 32 25 26 27 29 34 38 36 37 38 36 37 38 38 38 37 36 36 34 32 29 24 23 24 40 36 41 27 24 25 21 24 24 28 31 34
13 17 16 10 11 16 16 18 19 24 29 34 37 39 38 38 41 50 50 46 45 46 45 42 40 38 37 36 35 32 28 35 39 43 48 26 26 28 29 24 26 28 28
7 10 10 13 15 16 15 19 17 21 29 28 33 37 39 40 46 46 54 54 51 49 48 48 48 46 40 38 38 38 36 26 38 45 43 34 39 33 31 30 31 30 30
5 7 10 13 15 15 20 20 20 26 28 35 42 45 47 47 36 36 43 39 32 30 32 37 43 49 50 47 43 41 42 46 43 36 49 42 41 48 31 31 31 32 33
5 4 6 10 11 13 15 17 20 21 25 30 29 33 17 21 27 22 30 34 40 42 42 39 37 37 41 48 50 49 49 48 57 50 39 44 48 42 42 40 34 33 31
14 13 13 14 15 16 18 22 22 21 22 25 27 17 14 12 39 15 26 33 34 40 48 50 48 45 41 40 41 46 51 54 55 60 61 53 43 42 46 45 46 40 36
15 15 16 17 19 21 21 24 26 26 28 29 24 23 19 24 16 30 27 40 37 44 43 44 51 54 55 54 52 47 42 46 52 58 62 69 67 60 51 44 51 49 44
13 14 16 18 20 22 24 25 26 28 30 30 32 33 30 24 16 24 45 45 56 49 50 39 49 46 45 53 59 57 55 55 54 51 56 63 68 71 73 70 56 54 57
12 14 17 19 21 22 24 26 28 29 30 31 32 33 33 32 28 27 39 47 60 53 68 69 52 48 39 38 39 46 52 56 56 59 60 58 58 66 72 73 72 63 62
10 13 16 18 21 23 25 27 29 31 33 34 35 36 37 38 41 43 41 47 53 73 61 58 64 43 52 34 31 31 38 45 51 56 60 64 65 62 64 70 73 74 68
14 17 20 22 24 26 27 29 31 33 34 37 40 42 44 45 47 49 48 47 60 53 63 46 50 45 55 57 52 57 55 51 48 53 58 61 66 68 69 67 70 74 74
14 18 21 25 27 29 31 32 35 38 41 43 47 50 52 53 54 55 56 53 44 58 64 53 52 39 49 78 86 74 69 64 61 55 53 57 66 72 70 72 72 72 76
18 21 25 29 32 34 36 38 41 45 48 52 56 58 60 60 59 57 56 55 51 48 67 58 76 79 89 94 93 89 83 77 73 67 64 59 56 62 73 75 74 76 75
23 27 31 35 38 40 44 46 49 53 57 60 61 63 65 65 64 62 60 58 55 48 61 79 70 83 90 90 92 92 91 90 86 79 73 69 67 62 61 70 79 78 78
27 32 35 37 39 42 46 51 53 56 60 63 65 66 68 68 68 65 60 58 54 52 56 75 81 67 71 79 85 88 89 92 92 90 83 77 76 73 70 66 68 79 81
31 35 37 40 43 47 51 55 57 59 61 62 64 67 70 73 74 71 68 67 63 59 55 66 89 73 67 64 75 75 75 80 86 88 88 83 79 80 79 76 72 69 78
35 38 41 43 46 50 54 56 59 61 63 64 65 68 70 72 72 74 75 69 61 57 56 61 73 81 64 56 57 67 75 64 58 56 77 84 83 79 82 83 81 76 70
38 40 43 46 49 52 56 59 60 63 64 65 66 68 70 73 75 72 66 62 58 59 59 62 71 72 71 60 53 48 60 65 74 69 74 80 75 73 75 78 81 82 76
42 42 46 50 54 57 59 61 63 64 65 67 70 71 70 70 68 67 63 53 50 58 64 67 72 70 68 59 61 65 67 65 77 57 58 64 56 63 63 72 78 70 70
47 45 49 54 59 61 61 62 64 64 66 68 69 71 70 65 65 61 57 53 52 51 53 61 71 67 69 58 56 59 60 66 76 66 61 82 62 74 86 94 68 75 84
51 51 54 58 63 60 62 62 63 63 65 66 66 67 66 64 60 55 58 60 63 61 60 61 64 71 67 66 65 67 73 78 80 78 61 76 55 71 67 72 66 67 79
53 53 57 62 60 61 60 61 62 62 63 65 65 62 59 58 55 55 66 73 73 73 69 71 71 67 66 64 62 65 72 71 75 74 64 69 61 72 71 77 79 66 70
55 57 61 63 62 61 58 59 60 59 60 59 59 58 53 55 57 59 65 73 87 83 75 81 86 83 72 65 57 59 63 73 76 81 59 56 62 60 71 61 35 41 59
Wind_Direction_850mb
270 274 282 290 297 297 301 306 312 325 324 313 303 296 289 285 284 284 285 284 282 280 280 282 284 290 298 301 302 290 289 302 295 294 294 289 267 256 250 251 248 244 239
245 255 262 284 286 275 277 284 295 308 322 319 309 299 296 291 287 283 280 278 278 276 275 275 275 273 270 284 298 293 297 294 285 292 297 290 277 263 253 249 248 244 244
252 260 242 259 272 271 262 277 272 299 309 313 311 293 294 297 294 287 282 280 277 276 276 274 272 269 267 266 256 277 293 296 298 304 290 288 282 280 266 255 250 247 248
297 291 289 270 266 274 269 262 274 286 294 298 305 308 308 308 302 300 293 287 280 273 270 271 273 273 270 263 250 230 262 279 286 297 307 287 281 274 272 271 264 262 260
303 296 293 1 351 340 319 294 275 286 296 297 296 297 295 299 307 308 302 300 293 286 279 271 266 268 271 271 266 254 241 254 275 285 298 286 289 282 272 265 264 266 267
340 348 329 334 332 330 320 314 324 312 310 309 308 302 299 298 299 298 302 303 298 290 283 279 274 268 264 262 263 261 248 237 256 278 289 291 299 294 277 273 265 262 263
347 339 331 319 315 312 316 314 313 311 308 305 305 298 299 298 292 293 297 297 293 302 300 291 281 273 268 265 258 253 249 241 241 258 278 279 288 297 287 276 270 267 265
52 16 344 337 332 327 313 311 312 315 314 320 325 327 323 312 297 299 290 288 291 294 290 293 300 298 287 274 265 260 255 246 241 246 254 271 285 280 290 291 283 270 267
37 26 16 10 0 353 349 350 346 340 342 344 346 358 336 321 324 300 304 294 294 292 292 287 284 283 285 287 282 271 263 260 253 244 241 248 256 270 278 280 286 284 271
32 27 23 19 15 14 9 9 7 5 2 354 356 358 340 317 320 315 310 316 309 313 310 307 297 288 279 274 274 275 276 270 263 256 250 247 246 250 256 267 275 279 276
31 22 19 18 11 9 8 5 359 358 356 354 353 350 345 342 326 307 307 311 310 315 313 314 315 312 304 287 270 266 266 266 265 265 262 256 252 249 249 252 258 272 274
20 10 7 3 5 0 356 356 355 353 352 348 344 341 338 336 321 315 305 307 310 316 309 312 315 316 313 309 294 278 266 261 262 261 261 261 260 257 253 251 250 249 262
19 9 5 356 354 351 349 346 345 344 343 341 336 331 326 319 313 309 305 302 302 307 313 307 311 305 311 308 302 302 292 282 272 264 258 257 258 258 258 257 253 250 245
3 359 354 351 349 346 343 341 339 337 335 332 328 324 320 315 309 305 300 300 303 300 300 305 299 300 296 296 292 302 297 293 286 279 273 264 258 257 256 256 257 254 250
349 346 341 339 337 335 333 332 331 330 329 327 325 323 319 315 311 306 301 297 292 295 294 295 291 295 284 291 293 293 291 290 289 288 284 278 271 262 256 255 255 254 252
340 336 332 330 329 329 328 327 328 328 328 327 326 324 322 318 314 309 303 297 290 284 283 287 285 284 289 293 291 290 287 284 282 283 283 282 279 275 266 257 255 254 252
331 327 325 323 323 325 325 326 328 328 328 327 327 325 323 319 316 312 306 300 293 286 283 287 285 288 288 290 292 292 288 286 283 279 278 279 278 277 274 269 258 253 254
322 323 319 318 320 321 322 323 324 325 325 325 325 324 320 317 314 311 307 301 295 290 287 289 292 291 288 287 288 290 291 286 284 281 278 274 273 274 273 270 268 259 252
317 317 315 316 319 320 321 321 321 321 321 320 320 319 316 313 311 309 306 301 296 292 287 285 291 292 290 292 293 288 289 289 286 283 280 274 270 268 268 269 268 265 259
309 312 313 313 316 317 317 317 318 318 318 318 317 315 313 311 309 308 305 301 299 296 294 289 289 293 294 296 290 291 294 292 287 288 284 283 276 268 265 264 264 264 263
298 306 309 310 312 313 314 316 316 316 315 316 315 313 312 311 310 307 305 301 297 295 294 293 291 293 293 294 291 292 283 285 282 286 290 290 292 284 273 264 262 261 263
287 297 305 309 311 312 312 313 314 315 316 316 315 313 312 311 311 308 303 296 293 295 294 290 290 292 294 295 293 286 285 289 288 283 290 275 265 273 276 273 268 260 255
282 291 301 307 310 309 307 310 312 314 315 314 312 312 312 313 313 308 303 299 296 295 290 291 288 287 290 292 291 289 286 285 287 294 292 287 285 282 278 269 267 270 263
282 292 298 302 306 304 305 308 311 313 313 311 311 312 310 313 312 306 306 306 305 299 295 291 288 290 289 291 288 288 290 290 290 291 289 283 290 287 289 280 277 274 269
283 290 298 304 303 303 305 308 310 312 311 311 311 313 311 310 309 309 307 304 302 302 306 306 304 289 284 284 282 285 283 284 285 286 286 284 289 289 291 284 277 272 268
285 293 299 300 300 300 305 306 309 309 308 308 309 312 313 308 308 307 304 303 302 302 305 301 300 299 296 294 284 273 272 275 280 285 286 285 291 296 302 299 297 297 278